Regional Weather Roundup
Issued by NWS

Home | Current Version | Previous Version | Graphics & Text | Print | Product List | Glossary On
Versions: 1 2 3 4 5 6 7 8 9 10 11 12 13 14 15 16 17 18 19 20 21 22 23 24 25 26 27 28 29 30 31 32 33 34 35 36 37 38 39 40 41 42 43 44 45 46 47 48 49 50
000
ASUS43 KMPX 192010
RWRMN
WEATHER ROUNDUP FOR MINNESOTA
NATIONAL WEATHER SERVICE TWIN CITIES/CHANHASSEN MN
200 PM CST SUN FEB 19 2017


NOTE: "FAIR" INDICATES FEW OR NO CLOUDS BELOW 12,000 FEET WITH NO
SIGNIFICANT WEATHER AND/OR OBSTRUCTIONS TO VISIBILITY. N/A MEANS
CURRENT SKY AND/OR WEATHER CONDITIONS ARE NOT AVAILABLE.

MNZ060>063-068>070-192100-
   Twin Cities Metro

CITY           SKY/WX    TMP DP  RH WIND       PRES   REMARKS
TWIN CITIES    PTSUNNY   59  40  49 SE14      29.89F
ST PAUL        CLOUDY    56  40  55 SE13      29.90F
CRYSTAL        MOSUNNY   57  37  47 SE10      29.87F
BLAINE         PTSUNNY   59  37  44 SE13G18   29.88F
LAKEVILLE      CLOUDY    55  45  67 SE12      29.88F
EDEN PRAIRIE   PTSUNNY   58  41  53 SE16      29.86F
SOUTH ST PAUL  MOSUNNY   56  40  54 SE9       29.90F
LAKE ELMO      FAIR      55  39  54 SE8       29.92F
$$
MNZ001>005-007-008-013>017-022>024-027-028-192100-
   Northwest Minnesota

CITY           SKY/WX    TMP DP  RH WIND       PRES   REMARKS
BEMIDJI        PTSUNNY   43  32  65 SE12      29.80F
HALLOCK        PTSUNNY   43  36  75 E12       29.72F
ROSEAU         CLOUDY    39  34  81 E9        29.80S
WARROAD        CLOUDY    39  34  81 E13       29.82F
THIEF RVR FALL CLOUDY    41  33  73 E16       29.74F
CROOKSTON      CLOUDY    45  36  70 SE16      29.70F
FOSSTON        MOSUNNY   45  34  65 SE12      29.74F
DETROIT LAKES  MOSUNNY   48  37  66 SE20      29.73F
MOORHEAD       SUNNY     55  45  67 SE15G24   29.66F
PARK RAPIDS    CLOUDY    49  33  54 SE15G21   29.78F
MAHNOMEN       FAIR      48  37  64 SE15G21   29.71F
$$
MNZ006-009>011-018-025>026-192100-
   North Central Minnesota

CITY           SKY/WX    TMP DP  RH WIND       PRES   REMARKS
BAUDETTE       PTSUNNY   40  30  67 E10       29.84F
FLAG ISLAND    CLOUDY    41  28  60 E9        29.85F
INTL FALLS     PTSUNNY   43  30  60 E9        29.90S
WASKISH        CLOUDY    48  30  49 SE13G20   29.84F
BIG FORK       CLOUDY    46  28  49 SE6       29.88F
LONGVILLE      MOSUNNY   52  30  43 SE9G17    29.85F
GRAND RAPIDS   CLOUDY    51  30  44 SE9       29.91R
CRANE LAKE     CLOUDY    46  28  49 CALM      29.95R
ORR            CLOUDY    50  21  32 CALM      29.89S
COOK           MOSUNNY   50  28  43 CALM      29.92S
WALKER         FAIR      46  32  57 SE6       29.82F
$$
MNZ012-019>021-037-192100-
   Northeast Minnesota

CITY           SKY/WX    TMP DP  RH WIND       PRES   REMARKS
DULUTH         CLOUDY    41  31  67 E9        29.94S
ELY            MOSUNNY   48  27  43 SE6       29.94R
HIBBING        CLOUDY    46  28  49 SE10      29.91S
EVELETH        CLOUDY    49  22  34 S5        29.93S
DULUTH HARBOR  CLOUDY    36  34  93 NE3       29.99S
TWO HARBORS    CLOUDY    45  34  65 E9        29.96R
SILVER BAY     CLOUDY    39  30  70 E8        29.98R
GRAND MARAIS     N/A     39  31  72 NE8       30.04S
G MARAIS ARPRT MOSUNNY   37  25  60 SE6       30.00S
$$
MNZ029>031-032-039>041-046>048-054>057-064-192100-
   West Central Minnesota

CITY           SKY/WX    TMP DP  RH WIND       PRES   REMARKS
FERGUS FALLS   MOSUNNY   54  43  66 SE21G26   29.73F
WHEATON        SUNNY     55  46  71 SE21      29.69F
MORRIS         MOSUNNY   55  48  76 SE24      29.71F
ALEXANDRIA     CLOUDY    53  43  68 SE16G25   29.77F
ELBOW LAKE     FAIR      55  45  68 E18G29    29.72F
WADENA         CLOUDY    50  37  62 SE15      29.77F
GLENWOOD       MOSUNNY   54  45  71 SE16      29.78F
APPLETON       MOSUNNY   57  46  67 SE10      29.73F
BENSON         MOSUNNY   61  43  51 S16G24    29.76F
ORTONVILLE     SUNNY     55  46  71 SE17      29.69F
WILLMAR        FAIR      57  50  77 CALM      29.80F
$$
MNZ033>034-036-042>043-049>051-058-059-192100-
   Central Minnesota

CITY           SKY/WX    TMP DP  RH WIND       PRES   REMARKS
ST CLOUD       MOSUNNY   57  39  51 SE13      29.84F
SAUK CENTRE    FAIR      54  43  66 SE14      29.80F
PAYNESVILLE    PTSUNNY   55  42  60 SE16      29.82S
AITKIN         PTSUNNY   55  28  35 E7        29.87S
PINE RIVER     MOSUNNY   48  37  66 E10       29.88F
BRAINERD       CLOUDY    51  36  56 E6        29.85F
STAPLES        CLOUDY    52  36  54 SE9G17    29.80F
LONG PRAIRIE   FAIR      54  41  62 E13G18    29.80F
LITTLE FALLS   MOSUNNY   55  37  50 SE9G17    29.83F
LITCHFIELD     SUNNY     59  46  63 SE16      29.83F
BUFFALO        MOSUNNY   59  39  47 SE14      29.86F
MAPLE LAKE     CLOUDY    60  43  52 SE7       29.86S
HUTCHINSON     PTSUNNY   59  47  65 SE15      29.83F
$$
MNZ037-044-045-052-053-192100-
   East Central Minnesota

CITY           SKY/WX    TMP DP  RH WIND       PRES   REMARKS
PRINCETON      MOSUNNY   61  36  39 SE13      29.87F
MORA           PTSUNNY   54  34  47 SE8       29.91F
CAMBRIDGE      MOSUNNY   59  41  51 SE8       29.88S
RUSH CITY      PTSUNNY   57  37  47 SE9       29.91F
MOOSE LAKE     CLOUDY    55  32  41 SE3       29.91S
HINCKLEY       FAIR      57  34  41 SE7       29.91F
CLOQUET        CLOUDY    43  28  56 E9        29.94S
MCGREGOR       CLOUDY    52  32  46 SE8       29.90S
$$
MNZ071>073-080-081-089-090-097-098-192100-
   Southwest Minnesota

CITY           SKY/WX    TMP DP  RH WIND       PRES   REMARKS
MONTEVIDEO     CLOUDY    61  50  67 S16       29.76F
GRANITE FALLS  MOSUNNY   61  51  69 SE14      29.77F
CANBY          MOSUNNY   63  49  61 S16G24    29.72F
MARSHALL       PTSUNNY   62  51  67 S18       29.74F
REDWOOD FALLS  MOSUNNY   57  46  66 SE16      29.78F
OLIVIA         MOSUNNY   55  46  71 SE16      29.79S
PIPESTONE      CLOUDY    61  48  63 S23G30    29.73F
WINDOM         MOSUNNY   63  48  59 SE17      29.80S
WORTHINGTON    MOSUNNY   58  51  78 S15       29.79F
JACKSON        CLOUDY    59  46  63 S13G20    29.82S
TRACY          MOSUNNY   64  52  66 S18G24    29.77S
SLAYTON        MOSUNNY   62  52  70 S23G30    29.77F
$$
MNZ065>067-074>077-082>085-091>093-192100-
   South Central Minnesota

CITY           SKY/WX    TMP DP  RH WIND       PRES   REMARKS
MANKATO          N/A     59  47  64 SE14      29.85F
NEW ULM        PTSUNNY   57  46  67 SE14G20   29.82F
ST JAMES       MOSUNNY   57  52  82 SE13      29.83F
FAIRMONT       CLOUDY    60  51  72 SE16      29.83F
GLENCOE        PTSUNNY   59  48  66 SE9G18    29.84F
FARIBAULT      CLOUDY    61  45  55 SE15G22   29.89F
OWATONNA       SUNNY     59  43  55 SE22      29.88F
WASECA         SUNNY     55  45  67 SE18      29.88F
ALBERT LEA     SUNNY     57  46  67 SE15      29.88F
$$
MNZ078>079-086>088-094>096-192100-
   Southeast Minnesota

CITY           SKY/WX    TMP DP  RH WIND       PRES   REMARKS
ROCHESTER      SUNNY     56  44  64 SE15      29.93F
RED WING       MOSUNNY   57  37  47 SE9       29.92F
STANTON        CLOUDY    59  42  53 SE12      29.89F
DODGE CENTER   CLOUDY    55  45  67 SE12      29.92S
WINONA         CLOUDY    55  36  47 SE7       29.96F
AUSTIN         CLOUDY    55  45  67 SE9       29.91F
PRESTON        SUNNY     56  40  56 SE9       29.94F
$$
ABBREVIATIONS USED IN REMARKS
   TC - TEMPERATURES IN CELSIUS
  WCI - WIND CHILL INDEX
   HX - HEAT INDEX
  VSB - VISIBILITY
$$




USA.gov is the U.S. government's official web portal to all federal, state and local government web resources and services.